Weather in Ipiales

Colombia     0°49′23″N   77°38′23″W
temp.,
°C
wind,
m/s
gust,
m/s
humid.,
%
clouds,
%
prec.,
mm/h
press.,
hPa
HPBL,
m
11 may, tue
tue1101:00+7se1299100 0.7 1019128
04:00+7e23100100 0.4 1017254
07:00+7e2498100 0.8 1019312
10:00+8ese3496100 0.4 1020376
13:00+8se239599 1.0 1018339
16:00+10ese238678 0.8 1015489
19:00+7se229647 1.1 101892
22:00+6se119860 0.0 102227
12 may, wed
wed1201:00+6se129999 0.0 1020152
04:00+7e1299100 0.1 1018160
07:00+7ese23100100 0.1 1019302
10:00+8e2397100 0.4 1021275
13:00+8e2398100 0.9 1018410
16:00+9ese129572 0.3 1017234
19:00+6se229836 0.4 101919
22:00+6sse129860 0.0 102261
13 may, thu
thu1301:00+6se129777 0.0 1020125
04:00+7se1299100 0.0 1019198
07:00+7ese1299100 0.0 1020143
10:00+10se348998 0.3 1020575
13:00+13ese447525 0.6 1016963
16:00+13se447142 0.2 1014963
19:00+7ese239599 0.3 101865
22:00+6sse119857 0.0 102127
14 may, fri
fri1401:00+6se119870 0.0 102061
04:00+7ese129898 0.0 1018106
07:00+8ese2299100 0.4 1019148
10:00+9se239467 0.4 1020321
13:00+9ese2291100 0.8 1018320
16:00+12se227927 0.1 1014632
19:00+8se119319 0.3 101719
22:00+6se019887 0.0 102111
15 may, sat
sat1501:00+5s119867 0.0 102148
04:00+7se119773 0.0 101988
07:00+8se129793 0.0 1019214
10:00+10ese338885 0.2 1019469
13:00+14se447270 1.1 10141182
16:00+13se337985 1.0 1013757
19:00+8se229515 1.5 101816
22:00+7sse119758 0.0 102041